TimeCDT,TemperatureF,Dew PointF,Humidity,Sea Level PressureIn,VisibilityMPH,Wind Direction,Wind SpeedMPH,Gust SpeedMPH,PrecipitationIn,Events,Conditions,WindDirDegrees,DateUTC
12:53 AM,19.0,12.0,74,30.25,10.0,SW,6.9,-,N/A,,Clear,230,2012-10-07 05:53:00
1:53 AM,19.0,12.0,74,30.23,10.0,SW,6.9,-,N/A,,Clear,230,2012-10-07 06:53:00
2:53 AM,18.0,12.0,78,30.22,10.0,SSW,5.8,-,N/A,,Clear,200,2012-10-07 07:53:00
3:53 AM,15.1,10.0,80,30.19,10.0,South,5.8,-,N/A,,Clear,180,2012-10-07 08:53:00
4:53 AM,15.1,10.0,80,30.17,10.0,South,5.8,-,N/A,,Clear,170,2012-10-07 09:53:00
5:53 AM,17.1,12.0,81,30.14,10.0,South,6.9,-,N/A,,Clear,170,2012-10-07 10:53:00
6:53 AM,17.1,12.9,84,30.13,10.0,South,5.8,-,N/A,,Clear,170,2012-10-07 11:53:00
7:53 AM,18.0,12.9,81,30.12,10.0,South,6.9,-,N/A,,Clear,180,2012-10-07 12:53:00
8:53 AM,24.1,17.1,75,30.11,10.0,South,8.1,-,N/A,,Clear,180,2012-10-07 13:53:00
9:53 AM,32.0,19.9,61,30.08,10.0,SSW,9.2,-,N/A,,Clear,200,2012-10-07 14:53:00
10:53 AM,41.0,21.9,47,30.06,10.0,SSW,11.5,-,N/A,,Clear,200,2012-10-07 15:53:00
11:53 AM,50.0,23.0,35,30.03,10.0,SSW,13.8,-,N/A,,Clear,210,2012-10-07 16:53:00
12:53 PM,55.0,18.0,23,29.99,10.0,SW,16.1,24.2,N/A,,Clear,220,2012-10-07 17:53:00
1:53 PM,57.9,18.0,21,29.95,10.0,SW,13.8,21.9,N/A,,Overcast,230,2012-10-07 18:53:00
2:53 PM,59.0,18.0,20,29.92,10.0,West,11.5,24.2,N/A,,Clear,260,2012-10-07 19:53:00
3:53 PM,59.0,16.0,19,29.90,10.0,WNW,10.4,18.4,N/A,,Clear,290,2012-10-07 20:53:00
4:53 PM,59.0,19.9,22,29.89,10.0,NW,10.4,-,N/A,,Clear,310,2012-10-07 21:53:00
5:53 PM,57.9,23.0,26,29.87,10.0,WNW,8.1,-,N/A,,Clear,290,2012-10-07 22:53:00
6:53 PM,52.0,24.1,34,29.87,10.0,West,4.6,-,N/A,,Clear,260,2012-10-07 23:53:00
7:53 PM,43.0,21.9,43,29.87,10.0,SW,4.6,-,N/A,,Clear,220,2012-10-08 00:53:00
8:53 PM,36.0,19.9,52,29.87,10.0,South,5.8,-,N/A,,Clear,190,2012-10-08 01:53:00
9:53 PM,39.0,21.9,50,29.86,10.0,SSW,4.6,-,N/A,,Partly Cloudy,210,2012-10-08 02:53:00
10:53 PM,42.1,23.0,47,29.83,10.0,SSW,4.6,-,N/A,,Mostly Cloudy,210,2012-10-08 03:53:00
11:53 PM,42.1,25.0,51,29.83,10.0,WSW,8.1,-,N/A,,Overcast,240,2012-10-08 04:53:00